Lakeville, MN

4:37 AM CDT on September 28, 2016 (GMT -0500)
Airlake

Weather History for KLVN - February, 2012

Change the Weather History Date:

Monday, February 20, 2012

  Actual Average Record
Temperature  
Mean Temperature 30 °F -  
Max Temperature 42 °F 31 °F 58 °F (1981)
Min Temperature 19 °F 11 °F -16 °F (2008)
Degree Days  
Heating Degree Days 34    
Moisture  
Dew Point 22 °F    
Average Humidity 74    
Maximum Humidity 100    
Minimum Humidity 42    
Precipitation  
Precipitation 0.07 in - - ()
Sea Level Pressure  
Sea Level Pressure 29.94 in    
Wind  
Wind Speed 7 mph (SE)    
Max Wind Speed 24 mph    
Max Gust Speed 34 mph    
Visibility 8 miles    
Events Snow    
Averages and records for this station are not official NWS values.
T = Trace of Precipitation, MM = Missing Value Source: NWS Daily Summary

Daily Weather History Graph

Daily Weather History Graph

Search for Another Location

Airport or City:

Trip Planner

Search our weather history database for the weather conditions in past years. The results will help you decide how hot, cold, wet, or windy it might be!

Date:

Astronomy

Feb. 20, 2012 Rise Set
Actual Time 7:06 AM CST 5:47 PM CST
Civil Twilight 6:36 AM CST 6:17 PM CST
Nautical Twilight 6:02 AM CST 6:51 PM CST
Astronomical Twilight 5:28 AM CST 7:25 PM CST
Moon 6:04 AM CST (2/20) 4:52 PM CST (2/20)
Length of Visible Light 11h 41m
Length of Day
10h 41m
Waning Crescent, 1% of the Moon is Illuminated
Feb 20
Waning Crescent
Feb 21
New
Feb 29
First Quarter
Mar 8
Full
Mar 14
Last Quarter

Hourly Weather History & Observations

Time (CST) Temp. Windchill Dew Point Humidity Pressure Visibility Wind Dir Wind Speed Gust Speed Precip Events Conditions
12:04 AM 21.2 °F - 19.4 °F 93% 30.06 in 10.0 mi Calm Calm - N/A   Clear
12:24 AM 19.4 °F - 17.6 °F 93% 30.06 in 10.0 mi Calm Calm - N/A   Clear
12:45 AM 21.2 °F - 19.4 °F 93% 30.07 in 10.0 mi Calm Calm - N/A   Clear
1:04 AM 19.4 °F - 17.6 °F 93% 30.07 in 10.0 mi Calm Calm - N/A   Clear
1:24 AM 21.2 °F - 19.4 °F 93% 30.07 in 10.0 mi Calm Calm - N/A   Clear
1:45 AM 21.2 °F - 19.4 °F 93% 30.08 in 10.0 mi Calm Calm - N/A   Clear
2:04 AM 23.0 °F - 21.2 °F 93% 30.08 in 10.0 mi Calm Calm - N/A   Clear
2:24 AM 23.0 °F - 19.4 °F 86% 30.08 in 10.0 mi Calm Calm - N/A   Clear
2:44 AM 21.2 °F - 19.4 °F 93% 30.08 in 10.0 mi Calm Calm - N/A   Clear
3:04 AM 19.4 °F - 17.6 °F 93% 30.08 in 10.0 mi Calm Calm - N/A   Clear
3:24 AM 19.4 °F 14.3 °F 17.6 °F 93% 30.07 in 10.0 mi SE 3.5 mph - N/A   Clear
3:44 AM 19.4 °F 12.8 °F 17.6 °F 93% 30.07 in 10.0 mi SE 4.6 mph - N/A   Clear
4:04 AM 21.2 °F 14.9 °F 19.4 °F 93% 30.06 in 10.0 mi SE 4.6 mph - N/A   Clear
4:24 AM 21.2 °F 14.9 °F 19.4 °F 93% 30.06 in 10.0 mi SE 4.6 mph - N/A   Clear
4:44 AM 23.0 °F 18.4 °F 19.4 °F 86% 30.06 in 10.0 mi SE 3.5 mph - N/A   Clear
5:04 AM 23.0 °F 17.0 °F 19.4 °F 86% 30.06 in 10.0 mi SSE 4.6 mph - N/A   Clear
5:24 AM 24.8 °F 19.1 °F 19.4 °F 80% 30.06 in 10.0 mi SSE 4.6 mph - N/A   Clear
5:44 AM 24.8 °F 17.9 °F 19.4 °F 80% 30.06 in 10.0 mi SSE 5.8 mph - N/A   Clear
6:04 AM 24.8 °F 16.9 °F 19.4 °F 80% 30.06 in 10.0 mi SSE 6.9 mph - N/A   Clear
6:24 AM 24.8 °F 16.9 °F 21.2 °F 86% 30.06 in 10.0 mi SSE 6.9 mph - N/A   Clear
6:44 AM 24.8 °F 16.9 °F 19.4 °F 80% 30.06 in 10.0 mi SE 6.9 mph - N/A   Clear
7:04 AM 24.8 °F 16.9 °F 19.4 °F 80% 30.04 in 10.0 mi SE 6.9 mph - N/A   Clear
7:24 AM 24.8 °F 16.9 °F 21.2 °F 86% 30.04 in 10.0 mi ESE 6.9 mph - N/A   Clear
8:05 AM 26.6 °F 20.0 °F 21.2 °F 80% 30.04 in 10.0 mi SE 5.8 mph - N/A   Clear
8:24 AM 28.4 °F 20.4 °F 21.2 °F 74% 30.04 in 10.0 mi SE 8.1 mph - N/A   Clear
8:44 AM 28.4 °F 19.7 °F 21.2 °F 74% 30.03 in 10.0 mi SE 9.2 mph - N/A   Clear
9:05 AM 30.2 °F 20.8 °F 21.2 °F 69% 30.02 in 10.0 mi SE 11.5 mph - N/A   Clear
9:24 AM 32.0 °F 21.6 °F 21.2 °F 64% 30.01 in 10.0 mi SSE 15.0 mph 18.4 mph N/A   Clear
9:44 AM 33.8 °F 23.5 °F 21.2 °F 60% 30.01 in 10.0 mi SSE 16.1 mph 20.7 mph N/A   Scattered Clouds
10:04 AM 35.6 °F 26.2 °F 21.2 °F 56% 30.00 in 10.0 mi SSE 15.0 mph 19.6 mph N/A   Mostly Cloudy
10:24 AM 37.4 °F 26.6 °F 21.2 °F 52% 29.99 in 10.0 mi SSE 21.9 mph 26.5 mph N/A   Overcast
10:45 AM 37.4 °F 27.8 °F 21.2 °F 52% 29.97 in 10.0 mi SSE 17.3 mph 25.3 mph N/A   Mostly Cloudy
11:04 AM 37.4 °F 27.8 °F 21.2 °F 52% 29.97 in 10.0 mi SE 17.3 mph 23.0 mph N/A   Scattered Clouds
11:24 AM 37.4 °F 27.8 °F 21.2 °F 52% 29.96 in 10.0 mi SSE 17.3 mph 21.9 mph N/A   Clear
11:45 AM 37.4 °F 28.2 °F 19.4 °F 48% 29.96 in 10.0 mi SSE 16.1 mph 24.2 mph N/A   Clear
12:04 PM 39.2 °F 29.8 °F 21.2 °F 49% 29.94 in 10.0 mi SSE 18.4 mph 25.3 mph N/A   Clear
12:24 PM 39.2 °F 30.5 °F 21.2 °F 49% 29.92 in 10.0 mi SE 16.1 mph 20.7 mph N/A   Clear
12:45 PM 39.2 °F 32.0 °F 21.2 °F 49% 29.91 in 10.0 mi SE 11.5 mph 20.7 mph N/A   Clear
1:04 PM 39.2 °F 30.8 °F 21.2 °F 49% 29.90 in 10.0 mi SE 15.0 mph 25.3 mph N/A   Clear
1:24 PM 42.8 °F 34.8 °F 21.2 °F 42% 29.89 in 10.0 mi SE 17.3 mph 24.2 mph N/A   Scattered Clouds
1:44 PM 41.0 °F 32.5 °F 21.2 °F 45% 29.87 in 10.0 mi SE 17.3 mph 26.5 mph N/A   Scattered Clouds
2:04 PM 42.8 °F 34.8 °F 21.2 °F 42% 29.85 in 10.0 mi SE 17.3 mph 25.3 mph N/A   Clear
2:24 PM 41.0 °F 33.5 °F 21.2 °F 45% 29.84 in 10.0 mi SE 13.8 mph 26.5 mph N/A   Clear
3:04 PM 41.0 °F 32.5 °F 21.2 °F 45% 29.83 in 10.0 mi SE 17.3 mph - N/A   Clear
3:24 PM 41.0 °F 31.9 °F 21.2 °F 45% 29.82 in 10.0 mi SE 19.6 mph 23.0 mph N/A   Scattered Clouds
3:44 PM 39.2 °F 30.5 °F 21.2 °F 49% 29.82 in 10.0 mi SE 16.1 mph 21.9 mph N/A   Mostly Cloudy
4:04 PM 39.2 °F 31.6 °F 21.2 °F 49% 29.81 in 10.0 mi SE 12.7 mph 19.6 mph N/A   Scattered Clouds
4:24 PM 39.2 °F 32.0 °F 21.2 °F 49% 29.81 in 10.0 mi SE 11.5 mph 19.6 mph N/A   Mostly Cloudy
4:44 PM 37.4 °F 28.5 °F 21.2 °F 52% 29.79 in 10.0 mi SE 15.0 mph 20.7 mph N/A   Overcast
5:04 PM 37.4 °F 28.9 °F 21.2 °F 52% 29.79 in 10.0 mi SE 13.8 mph 20.7 mph N/A   Overcast
5:24 PM 37.4 °F 29.3 °F 21.2 °F 52% 29.79 in 10.0 mi SE 12.7 mph 21.9 mph N/A   Overcast
5:44 PM 37.4 °F 28.2 °F 21.2 °F 52% 29.79 in 10.0 mi SSE 16.1 mph 20.7 mph N/A   Overcast
6:04 PM 35.6 °F 23.7 °F 26.6 °F 70% 29.78 in 4.0 mi SSE 24.2 mph 32.2 mph N/A Snow Light Snow
6:24 PM 33.8 °F 22.2 °F 28.4 °F 81% 29.77 in 3.0 mi SE 20.7 mph 34.5 mph N/A Snow Light Snow
6:44 PM 32.0 °F 21.2 °F 30.2 °F 93% 29.77 in 1.5 mi SE 16.1 mph 24.2 mph N/A Snow Light Snow
6:53 PM 30.2 °F 20.2 °F 30.2 °F 100% 29.77 in 1.5 mi SE 12.7 mph 21.9 mph 0.01 in Snow Snow
6:55 PM 30.2 °F 20.8 °F 30.2 °F 100% 29.77 in 1.2 mi SE 11.5 mph 21.9 mph 0.01 in Snow Snow
7:05 PM 30.2 °F 19.8 °F 30.2 °F 100% 29.76 in 1.0 mi SE 13.8 mph 19.6 mph 0.01 in Snow Snow
7:24 PM 30.2 °F 19.3 °F 30.2 °F 100% 29.76 in 1.2 mi SE 15.0 mph 21.9 mph 0.02 in Snow Snow
7:44 PM 30.2 °F 19.3 °F 30.2 °F 100% 29.75 in 1.5 mi SE 15.0 mph 21.9 mph 0.03 in Snow Light Snow
7:55 PM 30.2 °F 19.8 °F 30.2 °F 100% 29.75 in 1.5 mi SE 13.8 mph - 0.04 in Snow Light Snow
8:04 PM 30.2 °F 20.2 °F 30.2 °F 100% 29.74 in 1.2 mi SE 12.7 mph 19.6 mph N/A Snow Snow
8:24 PM 30.2 °F 18.9 °F 30.2 °F 100% 29.74 in 1.2 mi SE 16.1 mph - 0.01 in Snow Snow
8:44 PM 30.2 °F 19.3 °F 30.2 °F 100% 29.73 in 1.2 mi SE 15.0 mph 18.4 mph 0.02 in Snow Snow
8:55 PM 30.2 °F 19.3 °F 30.2 °F 100% 29.72 in 1.2 mi SE 15.0 mph 20.7 mph 0.03 in Snow Snow
9:04 PM 30.2 °F 20.2 °F 30.2 °F 100% 29.73 in 1.2 mi SE 12.7 mph 21.9 mph N/A Snow Light Snow
9:25 PM 30.2 °F 19.3 °F 30.2 °F 100% 29.72 in 1.2 mi SE 15.0 mph 21.9 mph 0.01 in Snow Light Snow
9:55 PM 30.2 °F 19.8 °F 30.2 °F 100% 29.70 in 1.5 mi SE 13.8 mph 21.9 mph 0.01 in Snow Light Snow
10:04 PM 30.2 °F 19.8 °F 30.2 °F 100% 29.69 in 1.5 mi SE 13.8 mph 18.4 mph N/A Snow Light Snow
10:24 PM 30.2 °F 20.2 °F 30.2 °F 100% 29.68 in 2.0 mi SE 12.7 mph 20.7 mph 0.01 in   Overcast
10:44 PM 30.2 °F 20.2 °F 30.2 °F 100% 29.66 in 2.5 mi SE 12.7 mph 23.0 mph 0.01 in   Overcast
10:55 PM 30.2 °F 20.8 °F 30.2 °F 100% 29.66 in 2.5 mi SE 11.5 mph 17.3 mph 0.01 in   Overcast
11:04 PM 30.2 °F 20.2 °F 30.2 °F 100% 29.65 in 2.5 mi SE 12.7 mph 18.4 mph N/A   Overcast
11:24 PM 30.2 °F 20.2 °F 30.2 °F 100% 29.64 in 4.0 mi SSE 12.7 mph 19.6 mph 0.01 in   Overcast
11:44 PM 30.2 °F 20.8 °F 30.2 °F 100% 29.63 in 2.0 mi SE 11.5 mph - 0.02 in   Overcast
11:55 PM 30.2 °F 21.9 °F 30.2 °F 100% 29.63 in 3.0 mi SE 9.2 mph 17.3 mph 0.02 in   Overcast